Regional Weather Roundup
Issued by NWS

Home | Current Version | Previous Version | Text Only | Print | Product List | Glossary On
Versions: 1 2 3 4 5 6 7 8 9 10 11 12 13 14 15 16 17 18 19 20 21 22 23 24 25 26 27 28 29 30 31 32 33 34 35 36 37 38 39 40 41 42 43 44 45 46 47 48 49 50
083
ASUS44 KMEG 200710
RWRTN
TENNESSEE HOURLY STATE WEATHER ROUNDUP
NATIONAL WEATHER SERVICE MEMPHIS TN
200 AM CDT FRI APR 20 2018

TNZ002-004-019-021-049-052-054-088>092-200800-
WEST TENNESSEE

CITY           SKY/WX    TMP DP  RH WIND       PRES   REMARKS
MEMPHIS INTL   FAIR      44  34  67 NE8       30.35F
NWS MEMPHIS      N/A     42 N/A N/A MISG        N/A
JACKSON        FAIR      37  33  85 CALM      30.36F
DYERSBURG      FAIR      39  35  86 CALM      30.38F
SOMERVILLE     CLEAR     39  34  81 CALM      30.34S
COVINGTON      CLEAR     39  36  87 CALM      30.37S
UNION CITY     CLEAR     39  36  87 CALM      30.37S
BOLIVAR        CLEAR     39  34  81 CALM      30.35S
PARIS          CLEAR     34  34 100 CALM      30.36F
HUNTINGDON     CLEAR     37  36  93 CALM      30.36S
LEXINGTON      CLEAR     34  32  93 CALM      30.35F
SELMER         CLEAR     36  34  93 N5        30.33F WCI  32
SAVANNAH       CLEAR     36  36 100 CALM      30.33F
$$

TNZ008-025-027-028-033-062-065-066-200800-
NORTH MIDDLE TENNESSEE

CITY           SKY/WX    TMP DP  RH WIND       PRES   REMARKS
NASHVILLE      FAIR      41  33  73 N5        30.35S
PORTLAND       CLEAR     36  34  93 CALM      30.34F
CLARKSVILLE    FAIR      36  31  82 CALM      30.35F
SMYRNA         FAIR      38  32  79 N6        30.36S WCI  33
COOKEVILLE     CLEAR     32  32 100 CALM      30.32S
LIVINGSTON     SUNNY     37  30  75 NE3       30.31S
GALLATIN       CLEAR     36  32  87 CALM      30.38S
CROSSVILLE     FAIR      34  27  75 NE6       30.30F WCI  29
ROCKWOOD       SUNNY     36  30  80 NE3       30.30F
$$

TNZ061-075-076-078-094-096-097-200800-
SOUTH MIDDLE TENNESSEE

CITY           SKY/WX    TMP DP  RH WIND       PRES   REMARKS
LEWISBURG      SUNNY     32  30  93 CALM      30.33S
FAYETTEVILLE   CLEAR     39  32  75 N7        30.29F WCI  34
TULLAHOMA      CLEAR     37  30  75 N5        30.30F WCI  34
WINCHESTER     CLEAR     39  28  65 NE6       30.30S WCI  35
MCMINNVILLE    CLEAR     34  30  86 CALM      30.32R
COLUMBIA       CLEAR     37  34  87 CALM      30.33S
SHELBYVILLE    CLEAR     36  32  87 N5        30.33S WCI  32
$$

TNZ017-018-042-046-047-200800-
NORTHEAST TENNESSEE

CITY           SKY/WX    TMP DP  RH WIND       PRES   REMARKS
TRI CITIES     FAIR      31  29  92 CALM      30.32S
ELIZABETHTON   FAIR      32  28  86 CALM      30.32S
$$

TNZ012-013-036-069-073-074-200800-
CENTRAL EAST TENNESSEE

CITY           SKY/WX    TMP DP  RH WIND       PRES   REMARKS
KNOXVILLE      FAIR      37  30  75 NE8       30.31F WCI  31
OAK RIDGE      FAIR      38  32  79 CALM      30.34F
DOWNTOWN KNOXV CLEAR     36  32  87 CALM      30.34F
GATLINBURG     CLEAR     34  30  86 CALM      30.33F
MORRISTOWN     PTCLDY    36  30  80 CALM      30.32F
JACKSBORO      CLEAR     32  30  93 CALM      30.36F
$$

TNZ083-085-099-200800-
SOUTHEAST TENNESSEE

CITY           SKY/WX    TMP DP  RH WIND       PRES   REMARKS
CHATTANOOGA    FAIR      43  31  62 N12       30.30S
DAYTON         SUNNY     39  34  81 NE3       30.31S
$$

SKY/WX REPORTED AS FAIR MEANS FEW OR NO CLOUDS BELOW
12 THOUSAND FEET.





USA.gov is the U.S. government's official web portal to all federal, state and local government web resources and services.